GW5079 Weather Reports


time (UTC)temp
F
wind
direction
speed
knots
gust
knots
rain 1hr
in
rain 24hr
in
rain mn
in
humidity
%
barometer
mb
20260506103923 45 76 0.9 0.9 0.00 0.00 0.00 61 1017.0
20260506103420 46 67 0.0 0.0 0.00 0.00 0.00 60 1016.8
20260506102917 47 67 0.0 0.0 0.00 0.00 0.00 59 1016.6
20260506102415 47 65 0.0 0.9 0.00 0.00 0.00 58 1016.7
20260506101912 47 113 0.9 0.9 0.00 0.00 0.00 58 1016.5
20260506101408 47 65 0.0 0.9 0.00 0.00 0.00 58 1016.5
20260506100905 47 89 0.9 0.9 0.00 0.00 0.00 59 1016.6
20260506100404 47 67 0.0 0.0 0.00 0.00 0.00 58 1016.8
20260506095902 47 67 0.0 0.0 0.00 0.00 0.00 58 1016.7
20260506095400 48 79 1.7 1.7 0.00 0.00 0.00 57 1016.7
20260506094855 49 67 0.0 0.0 0.00 0.00 0.00 57 1016.6
20260506094355 50 68 0.0 0.0 0.00 0.00 0.00 56 1016.6
20260506093852 50 56 0.9 0.9 0.00 0.00 0.00 55 1016.6
20260506093349 51 171 1.7 1.7 0.00 0.00 0.00 54 1016.6
20260506092847 51 79 0.9 0.9 0.00 0.00 0.00 54 1016.6
20260506092345 52 103 0.9 1.7 0.00 0.00 0.00 53 1016.4
20260506091841 52 31 1.7 1.7 0.00 0.00 0.00 53 1016.5
20260506091339 51 47 1.7 2.6 0.00 0.00 0.00 53 1016.5
20260506090836 51 19 2.6 2.6 0.00 0.00 0.00 52 1016.5
20260506090333 52 47 1.7 1.7 0.00 0.00 0.00 52 1016.6
20260506085830 52 47 1.7 2.6 0.00 0.00 0.00 52 1016.5
20260506085326 52 27 1.7 2.6 0.00 0.00 0.00 51 1016.4
20260506084823 51 40 1.7 2.6 0.00 0.00 0.00 52 1016.3
20260506084320 51 43 1.7 1.7 0.00 0.00 0.00 53 1016.5
20260506083816 51 56 0.9 0.9 0.00 0.00 0.00 54 1016.6
20260506083314 51 67 0.0 0.0 0.00 0.00 0.00 54 1016.5
20260506082811 51 67 0.0 0.0 0.00 0.00 0.00 53 1016.6
20260506082308 52 68 0.0 0.9 0.00 0.00 0.00 53 1016.4
20260506081804 52 63 0.0 0.0 0.00 0.00 0.00 53 1016.6
20260506081302 52 57 0.0 0.9 0.00 0.00 0.00 53 1016.3
20260506080800 51 63 0.0 0.0 0.00 0.00 0.00 54 1016.5
20260506080256 52 65 0.0 0.0 0.00 0.00 0.00 54 1016.6
20260506073240 53 29 2.6 3.5 0.00 0.00 0.00 51 1016.6
20260506072737 53 3 6.1 7.0 0.00 0.00 0.00 50 1016.6
20260506072234 54 48 2.6 3.5 0.00 0.00 0.00 47 1016.7
20260506071732 54 5 2.6 2.6 0.00 0.00 0.00 46 1016.6
20260506071230 55 48 3.5 3.5 0.00 0.00 0.00 45 1016.7
20260506070726 55 312 4.3 6.1 0.00 0.00 0.00 46 1016.4
20260506070223 55 303 6.1 7.8 0.00 0.02 0.02 45 1016.5
20260506062200 56 319 3.5 5.2 0.00 0.02 0.02 40 1016.6
20260506061656 57 329 4.3 5.2 0.00 0.02 0.02 40 1016.4
20260506061154 57 347 5.2 6.1 0.00 0.02 0.02 40 1016.7
20260506060652 57 65 3.5 5.2 0.00 0.02 0.02 40 1016.5
20260506060149 57 45 4.3 6.1 0.00 0.02 0.02 39 1016.3
20260506051120 58 53 0.9 1.7 0.00 0.02 0.02 38 1016.4
20260506050619 58 31 2.6 2.6 0.00 0.02 0.02 38 1016.4
20260506050116 58 29 1.7 2.6 0.00 0.02 0.02 38 1016.4
20260506045109 58 53 2.6 2.6 0.00 0.02 0.02 39 1016.2
20260506044607 58 50 0.9 0.9 0.00 0.02 0.02 39 1016.3
20260506044103 58 56 0.9 0.9 0.00 0.02 0.02 40 1016.2
20260506043601 58 59 0.9 0.9 0.00 0.02 0.02 40 1016.0
20260506043059 58 59 0.0 0.9 0.00 0.02 0.02 40 1015.8
20260506042558 58 54 0.9 1.7 0.00 0.02 0.02 40 1015.9
20260506042055 59 59 0.9 0.9 0.00 0.02 0.02 41 1015.9
20260506041554 59 39 2.6 2.6 0.00 0.02 0.02 42 1015.8
20260506041050 59 48 1.7 1.7 0.00 0.02 0.02 42 1015.6
20260506040548 59 48 0.9 1.7 0.00 0.02 0.02 42 1015.7
20260506040044 60 59 0.9 1.7 0.00 0.02 0.02 42 1015.5
20260506035541 60 35 1.7 1.7 0.00 0.02 0.02 42 1015.7
20260506035038 60 52 1.7 1.7 0.00 0.02 0.02 41 1015.4
20260506034535 60 15 3.5 3.5 0.00 0.02 0.02 41 1015.4
20260506034032 60 38 1.7 2.6 0.00 0.02 0.02 41 1015.4
20260506033529 60 59 0.9 1.7 0.00 0.02 0.02 41 1015.3
20260506033026 60 17 1.7 2.6 0.00 0.02 0.02 41 1015.0
20260506032524 61 309 2.6 3.5 0.00 0.02 0.02 41 1014.9
20260506032020 61 92 1.7 1.7 0.00 0.02 0.02 40 1014.8
20260506031518 61 300 5.2 7.0 0.00 0.02 0.02 40 1014.7
20260506031015 62 2 0.9 1.7 0.00 0.02 0.02 39 1014.6
20260506030513 62 30 1.7 2.6 0.00 0.02 0.02 38 1014.6
20260506030010 62 43 1.7 2.6 0.00 0.02 0.02 36 1014.5
20260506025506 62 313 4.3 5.2 0.00 0.02 0.02 34 1014.5
20260506025003 63 299 5.2 6.1 0.00 0.02 0.02 34 1014.2
20260506024459 63 32 1.7 1.7 0.00 0.02 0.02 33 1014.3
20260506023955 63 297 2.6 5.2 0.00 0.02 0.02 33 1014.0
20260506023452 63 23 3.5 3.5 0.00 0.02 0.02 33 1014.0
20260506022949 64 332 1.7 2.6 0.00 0.02 0.02 33 1013.8
20260506022447 64 289 5.2 6.1 0.00 0.02 0.02 33 1014.1
20260506021945 64 190 3.5 3.5 0.00 0.02 0.02 33 1013.7
20260506021442 64 20 2.6 2.6 0.00 0.02 0.02 33 1013.5
20260506020939 64 339 6.1 7.8 0.00 0.02 0.02 32 1013.5
20260506020436 65 303 4.3 6.1 0.00 0.02 0.02 32 1013.4
20260506015933 65 270 5.2 5.2 0.00 0.02 0.02 31 1013.4
20260506015431 65 152 6.1 8.7 0.00 0.02 0.02 31 1013.4
20260506014928 65 319 8.7 12.2 0.00 0.02 0.02 31 1013.3
20260506014425 66 287 3.5 3.5 0.00 0.02 0.02 31 1013.2
20260506013921 66 239 6.1 7.0 0.00 0.02 0.02 30 1013.2
20260506013419 67 285 5.2 7.0 0.00 0.02 0.02 28 1013.2
20260506012915 67 71 1.7 1.7 0.00 0.02 0.02 27 1013.0
20260506012412 68 204 6.1 8.7 0.00 0.02 0.02 26 1013.1
20260506011909 68 54 5.2 7.0 0.00 0.02 0.02 26 1013.0
20260506011406 68 282 8.7 11.3 0.00 0.02 0.02 25 1013.0
20260506010903 68 202 5.2 6.1 0.00 0.02 0.02 25 1013.0
20260506010401 68 219 6.1 7.0 0.00 0.02 0.02 26 1012.7
20260506005858 69 206 5.2 7.0 0.00 0.02 0.02 26 1013.0
20260506005355 69 308 5.2 6.1 0.00 0.02 0.02 27 1012.7
20260506004850 69 225 7.8 9.6 0.00 0.02 0.02 27 1012.5
20260506004348 70 271 5.2 7.8 0.00 0.02 0.02 27 1012.6
20260506003844 70 334 6.1 7.0 0.00 0.02 0.02 27 1012.4
20260506003341 69 3 5.2 7.0 0.00 0.02 0.02 27 1012.4
20260506002837 69 276 6.1 9.6 0.00 0.02 0.02 28 1012.6
20260506002334 69 221 7.8 8.7 0.00 0.02 0.02 28 1012.4
20260506001829 70 309 7.8 12.2 0.00 0.02 0.02 28 1012.4
20260506001327 70 163 7.8 8.7 0.00 0.02 0.02 27 1012.5
20260506000823 71 142 10.4 14.8 0.00 0.02 0.02 26 1012.5
20260506000323 70 305 8.7 12.2 0.00 0.02 0.02 27 1012.4
20260505235818 70 245 7.8 9.6 0.00 0.02 0.02 28 1012.4
20260505235315 71 273 7.0 8.7 0.00 0.02 0.02 27 1012.4
20260505234812 70 242 7.8 9.6 0.00 0.02 0.02 26 1012.4
20260505234310 71 246 11.3 20.9 0.00 0.02 0.02 25 1012.4
20260505233807 71 264 9.6 13.0 0.00 0.02 0.02 26 1012.2
20260505233305 71 271 9.6 13.0 0.00 0.02 0.02 26 1012.3
20260505232801 71 254 5.2 7.0 0.00 0.02 0.02 27 1012.1
20260505232259 71 190 6.1 7.0 0.00 0.02 0.02 26 1012.3
20260505231755 72 237 9.6 13.0 0.00 0.02 0.02 25 1012.3
20260505231254 72 236 7.8 8.7 0.00 0.02 0.02 26 1012.2
20260505230752 73 139 5.2 6.1 0.00 0.02 0.02 25 1011.9
20260505230248 73 260 6.1 8.7 0.00 0.02 0.02 24 1012.2
20260505225745 73 246 8.7 16.5 0.00 0.02 0.02 23 1012.2
20260505225242 73 245 5.2 7.0 0.00 0.02 0.02 25 1012.2
20260505224737 72 238 7.8 12.2 0.00 0.02 0.02 25 1012.3
20260505224235 72 167 5.2 7.8 0.00 0.02 0.02 27 1012.3
20260505223732 72 197 8.7 14.8 0.00 0.02 0.02 26 1012.3
20260505223229 72 215 8.7 12.2 0.00 0.02 0.02 25 1012.2
20260505222725 72 276 6.1 8.7 0.00 0.02 0.02 26 1012.3
20260505222221 72 248 7.8 8.7 0.00 0.02 0.02 28 1012.3
20260505221718 71 81 6.1 9.6 0.00 0.02 0.02 27 1012.3
20260505221215 72 155 8.7 11.3 0.00 0.02 0.02 26 1012.5
20260505220712 71 246 3.5 6.1 0.00 0.02 0.02 26 1012.6
20260505220210 73 159 7.0 8.7 0.00 0.02 0.02 26 1012.6
20260505215707 72 257 7.0 8.7 0.00 0.02 0.02 26 1012.7
20260505215205 72 264 7.0 11.3 0.00 0.02 0.02 29 1012.6
20260505214702 71 261 6.1 7.0 0.00 0.02 0.02 28 1012.9
20260505214159 72 238 9.6 11.3 0.00 0.02 0.02 27 1013.0
20260505213657 71 251 7.0 7.8 0.00 0.02 0.02 26 1013.1
20260505213154 71 243 8.7 13.0 0.00 0.02 0.02 27 1013.1
20260505212649 72 260 9.6 12.2 0.00 0.02 0.02 29 1013.3
20260505212147 72 282 11.3 13.0 0.00 0.02 0.02 27 1013.3
20260505211644 72 255 7.8 12.2 0.00 0.02 0.02 28 1013.1
20260505211141 73 281 8.7 13.0 0.00 0.02 0.02 28 1013.4
20260505210638 71 281 7.8 9.6 0.00 0.02 0.02 29 1013.3
20260505210135 71 180 5.2 7.8 0.00 0.02 0.02 30 1013.3
20260505205632 72 168 9.6 13.0 0.00 0.02 0.02 29 1013.5
20260505205130 71 173 7.0 11.3 0.00 0.02 0.02 31 1013.5
20260505204627 71 167 4.3 6.1 0.00 0.02 0.02 31 1013.7
20260505204125 72 276 12.2 14.8 0.00 0.02 0.02 32 1013.5
20260505203621 72 241 4.3 7.0 0.00 0.02 0.02 31 1013.7
20260505203119 71 255 9.6 13.9 0.00 0.02 0.02 32 1013.7
20260505202614 71 334 9.6 12.2 0.00 0.02 0.02 31 1013.7
20260505202110 71 173 5.2 7.8 0.00 0.02 0.02 31 1013.5
20260505201607 71 263 10.4 13.9 0.00 0.02 0.02 32 1013.5
20260505201105 71 231 9.6 9.6 0.00 0.02 0.02 32 1013.5
20260505200602 70 212 7.8 9.6 0.00 0.02 0.02 33 1013.8
20260505200059 70 214 8.7 11.3 0.00 0.02 0.02 33 1013.8
20260505195555 71 265 10.4 13.0 0.00 0.02 0.02 32 1013.8
20260505195053 71 252 9.6 12.2 0.00 0.02 0.02 33 1013.8
20260505194550 71 286 9.6 12.2 0.00 0.02 0.02 32 1014.0
20260505194045 70 217 7.0 7.8 0.00 0.02 0.02 35 1014.0
20260505193543 70 245 11.3 14.8 0.00 0.02 0.02 34 1013.9
20260505193040 71 304 9.6 13.9 0.00 0.02 0.02 35 1014.2
20260505192538 71 222 7.0 9.6 0.00 0.02 0.02 34 1014.2
20260505192036 70 199 3.5 3.5 0.00 0.02 0.02 35 1014.2
20260505191534 69 171 7.8 8.7 0.00 0.02 0.02 36 1014.3
20260505191031 70 198 7.0 11.3 0.00 0.02 0.02 36 1014.3
20260505190525 71 237 8.7 11.3 0.00 0.02 0.02 34 1014.6
20260505190022 70 66 6.1 7.8 0.00 0.02 0.02 35 1014.7
20260505185519 70 261 7.8 8.7 0.00 0.02 0.02 35 1014.7
20260505185015 70 212 8.7 14.8 0.00 0.02 0.02 35 1014.9
20260505184513 71 273 9.6 12.2 0.00 0.02 0.02 33 1015.0
20260505184009 71 139 1.7 1.7 0.00 0.02 0.02 36 1014.8
20260505183506 70 334 5.2 6.1 0.00 0.02 0.02 37 1015.1
20260505183003 69 151 5.2 7.0 0.00 0.02 0.02 39 1014.9
20260505182500 69 145 4.3 6.1 0.00 0.02 0.02 39 1014.9
20260505181956 68 100 3.5 5.2 0.00 0.02 0.02 40 1014.9
20260505181453 68 212 3.5 6.1 0.00 0.02 0.02 40 1015.1
20260505180950 68 160 3.5 5.2 0.00 0.02 0.02 40 1015.1
20260505180446 68 83 3.5 5.2 0.00 0.02 0.02 40 1015.1
20260505175943 67 215 7.8 11.3 0.00 0.02 0.02 42 1015.1
20260505175439 65 81 0.9 2.6 0.00 0.02 0.02 46 1015.3
20260505174936 65 47 0.9 1.7 0.00 0.02 0.02 47 1015.1
20260505174433 64 357 2.6 3.5 0.00 0.02 0.02 46 1015.3
20260505173929 64 40 1.7 1.7 0.00 0.02 0.02 50 1015.7
20260505173426 64 61 0.9 0.9 0.00 0.02 0.02 50 1015.3
20260505172923 64 66 0.0 0.0 0.00 0.02 0.02 50 1015.3
20260505172421 63 79 2.6 3.5 0.00 0.02 0.02 52 1015.5
20260505171920 62 66 0.9 1.7 0.00 0.02 0.02 54 1015.1
20260505171418 61 62 0.9 0.9 0.00 0.02 0.02 55 1015.4
20260505170914 61 93 1.7 1.7 0.00 0.02 0.02 57 1015.5
20260505170411 60 88 2.6 3.5 0.00 0.02 0.02 58 1015.1
20260505165906 60 117 5.2 7.0 0.00 0.02 0.02 59 1015.6
20260505165402 60 123 4.3 5.2 0.00 0.02 0.02 59 1015.4
20260505164857 60 74 3.5 5.2 0.00 0.02 0.02 60 1015.5
20260505164355 60 91 4.3 6.1 0.00 0.02 0.02 61 1015.4
20260505163853 60 95 3.5 7.0 0.00 0.02 0.02 63 1015.5
20260505163351 60 83 3.5 6.1 0.00 0.02 0.02 63 1015.3
20260505162849 60 105 3.5 5.2 0.00 0.02 0.02 62 1015.5
20260505162345 60 115 2.6 3.5 0.00 0.02 0.02 61 1015.4
20260505161843 60 38 2.6 3.5 0.00 0.02 0.02 62 1015.3
20260505161339 60 45 0.9 1.7 0.00 0.02 0.02 61 1015.3
20260505160837 61 85 1.7 2.6 0.00 0.02 0.02 60 1015.3
20260505160335 60 37 1.7 3.5 0.00 0.02 0.02 61 1015.0
20260505153314 58 78 1.7 2.6 0.00 0.02 0.02 67 1015.1
20260505152811 58 122 4.3 6.1 0.00 0.02 0.02 67 1014.8
20260505152307 58 82 2.6 2.6 0.00 0.02 0.02 67 1014.8
20260505151802 58 76 2.6 2.6 0.00 0.02 0.02 67 1014.9
20260505151259 57 105 1.7 2.6 0.00 0.02 0.02 68 1014.8
20260505150756 57 70 0.9 0.9 0.00 0.02 0.02 69 1014.8
20260505150253 57 71 0.9 1.7 0.00 0.02 0.02 69 1014.7
20260505140223 55 67 0.9 1.7 0.00 0.02 0.02 71 1014.2
20260505130147 55 57 1.7 1.7 0.00 0.01 0.01 81 1014.0
20260505124636 54 61 0.0 0.0 0.07 0.01 0.01 83 1013.9
20260505124133 54 57 0.9 0.9 0.07 0.01 0.01 82 1013.7
20260505123629 55 61 0.9 1.7 0.07 0.01 0.01 81 1013.5
20260505123126 55 86 0.0 0.9 0.00 0.00 0.00 80 1013.3
20260505122622 55 80 1.7 1.7 0.00 0.00 0.00 77 1014.0
20260505122120 55 67 0.0 0.0 0.00 0.00 0.00 76 1013.9
20260505121616 55 68 0.9 1.7 0.00 0.00 0.00 75 1014.1
20260505121113 55 80 1.7 1.7 0.00 0.00 0.00 76 1014.0
20260505120609 55 119 1.7 3.5 0.00 0.00 0.00 75 1014.1
20260505120100 56 88 1.7 1.7 0.00 0.00 0.00 74 1014.0
20260505115600 56 81 0.9 1.7 0.00 0.00 0.00 74 1013.8
20260505115057 56 90 0.9 1.7 0.00 0.00 0.00 74 1013.8
20260505114549 56 65 0.9 0.9 0.00 0.00 0.00 73 1014.0
20260505114045 56 64 0.0 0.9 0.00 0.00 0.00 71 1013.9
20260505113541 56 85 0.0 0.0 0.00 0.00 0.00 68 1014.3
20260505113037 56 69 0.0 0.0 0.00 0.00 0.00 66 1014.6
20260505112535 56 60 0.0 0.9 0.00 0.00 0.00 66 1014.2
20260505112033 56 77 0.9 0.9 0.00 0.00 0.00 64 1014.7
20260505111531 57 69 0.0 0.9 0.00 0.00 0.00 62 1014.8
20260505111028 57 31 1.7 2.6 0.00 0.00 0.00 59 1014.9
20260505110525 57 63 0.9 0.9 0.00 0.00 0.00 57 1014.5